Weather History for BGGH - November, 2013

Change the Weather History Date:

Saturday, November 9, 2013

  Actual Average Record
Temperature  
Mean Temperature 22 °F -  
Max Temperature 26 °F 26 °F 48 °F (2002)
Min Temperature 19 °F 21 °F 14 °F (2005)
Degree Days  
Heating Degree Days 42    
Moisture  
Dew Point 16 °F    
Average Humidity 75    
Maximum Humidity 86    
Minimum Humidity 62    
Precipitation  
Precipitation 0.00 in - - ()
Sea Level Pressure  
Sea Level Pressure 29.43 in    
Wind  
Wind Speed 8 mph ()    
Max Wind Speed 14 mph    
Max Gust Speed -    
Visibility 6.2 miles    
Events      
Averages and records for this station are not official NWS values.
T = Trace of Precipitation, MM = Missing Value Source: Averaged Metar Reports

Daily Weather History Graph

Daily Weather History Graph

Search for Another Location

Airport or City:

Trip Planner

Search our weather history database for the weather conditions in past years. The results will help you decide how hot, cold, wet, or windy it might be!

Date:

Astronomy

Nov. 09, 2013 Rise Set
Actual Time 8:36 AM WGT 3:43 PM WGT
Civil Twilight 7:39 AM WGT 4:40 PM WGT
Nautical Twilight 6:40 AM WGT 5:39 PM WGT
Astronomical Twilight 5:44 AM WGT 6:35 PM WGT
Moon 1:47 PM WGT (11/9) 10:36 PM WGT (11/9)
Length of Visible Light 9h 00m
Length of Day
7h 06m
Waxing Crescent, 43% of the Moon is Illuminated
Nov 9
Waxing Crescent
Nov 10
First Quarter
Nov 17
Full
Nov 25
Last Quarter
Dec 2
New

Hourly Weather History & Observations

Time (WGT) Temp. Windchill Dew Point Humidity Pressure Visibility Wind Dir Wind Speed Gust Speed Precip Events Conditions
12:00 AM 23 °F - 15 °F 62% 29.39 in 31 mi NNE 12.7 mph - -  
12:20 AM 21.2 °F 8.3 °F 14.0 °F 74% 29.42 in 6.2 mi NNE 13.8 mph - N/A   Partly Cloudy
12:50 AM 21.2 °F 10.1 °F 14.0 °F 74% 29.42 in 6.2 mi NNE 10.4 mph - N/A   Partly Cloudy
1:20 AM 21.2 °F 10.1 °F 15.8 °F 80% 29.42 in 6.2 mi NNE 10.4 mph - N/A   Unknown
1:50 AM 21.2 °F 10.1 °F 14.0 °F 74% 29.42 in 6.2 mi NNE 10.4 mph - N/A   Partly Cloudy
2:20 AM 21.2 °F 9.5 °F 15.8 °F 80% 29.42 in 6.2 mi NNE 11.5 mph - N/A   Partly Cloudy
2:50 AM 21.2 °F 10.9 °F 14.0 °F 74% 29.42 in 6.2 mi NNE 9.2 mph - N/A   Partly Cloudy
3:00 AM 24 °F - 17 °F 67% 29.41 in 31 mi NNE 11.5 mph - -  
3:20 AM 23.0 °F 11.7 °F 15.8 °F 74% 29.42 in 6.2 mi NNE 11.5 mph - N/A   Partly Cloudy
3:50 AM 21.2 °F 10.9 °F 14.0 °F 74% 29.42 in 6.2 mi NE 9.2 mph - N/A   Unknown
4:20 AM 23.0 °F 13.1 °F 12.2 °F 63% 29.44 in 6.2 mi NNE 9.2 mph - N/A   Partly Cloudy
4:50 AM 23.0 °F 11.7 °F 15.8 °F 74% 29.44 in 6.2 mi NNE 11.5 mph - N/A   Partly Cloudy
5:20 AM 21.2 °F 10.1 °F 14.0 °F 74% 29.44 in 6.2 mi NNE 10.4 mph - N/A   Partly Cloudy
5:50 AM 21.2 °F 10.1 °F 15.8 °F 80% 29.44 in 6.2 mi NNE 10.4 mph - N/A   Unknown
6:00 AM 24 °F - 19 °F 72% 29.44 in 31 mi North 10.4 mph - -  
6:20 AM 21.2 °F 10.1 °F 15.8 °F 80% 29.44 in 6.2 mi NNE 10.4 mph - N/A   Partly Cloudy
6:50 AM 21.2 °F 10.1 °F 15.8 °F 80% 29.44 in 6.2 mi NNE 10.4 mph - N/A   Clear
7:50 AM 23.0 °F 13.1 °F 17.6 °F 80% 29.44 in 6.2 mi NNE 9.2 mph - N/A   Clear
8:50 AM 23.0 °F 13.9 °F 17.6 °F 80% 29.47 in 6.2 mi NNE 8.1 mph - N/A   Clear
9:00 AM 25 °F - 21 °F 78% 29.46 in 31 mi North 9.2 mph - -  
9:50 AM 23.0 °F 13.1 °F 15.8 °F 74% 29.47 in 6.2 mi NNE 9.2 mph - N/A   Partly Cloudy
10:50 AM 23.0 °F 13.9 °F 15.8 °F 74% 29.47 in 6.2 mi NE 8.1 mph - N/A   Partly Cloudy
11:50 AM 24.8 °F 16.9 °F 15.8 °F 69% 29.47 in 6.2 mi NNE 6.9 mph - N/A   Partly Cloudy
12:00 PM 26 °F - 21 °F 72% 29.46 in 31 mi North 6.9 mph - -  
12:50 PM 24.8 °F 16.9 °F 17.6 °F 74% 29.47 in 6.2 mi NNE 6.9 mph - N/A   Partly Cloudy
1:50 PM 24.8 °F 17.9 °F 17.6 °F 74% 29.44 in 6.2 mi NNE 5.8 mph - N/A   Partly Cloudy
2:50 PM 24.8 °F 19.1 °F 19.4 °F 80% 29.44 in 6.2 mi NNE 4.6 mph - N/A   Partly Cloudy
3:00 PM 25 °F - 17 °F 63% 29.45 in 31 mi North 8.1 mph - -  
3:50 PM 24.8 °F 19.1 °F 15.8 °F 69% 29.44 in 6.2 mi NNE 4.6 mph - N/A   Partly Cloudy
4:50 PM 23.0 °F 18.4 °F 14.0 °F 68% 29.44 in 6.2 mi NNE 3.5 mph - N/A   Partly Cloudy
5:20 PM 21.2 °F - 15.8 °F 80% 29.44 in 6.2 mi NNE 2.3 mph - N/A   Unknown
5:50 PM 21.2 °F - 15.8 °F 80% 29.44 in 6.2 mi North 2.3 mph - N/A   Unknown
6:00 PM 24 °F - 17 °F 65% 29.44 in 31 mi NNW 6.9 mph - -  
6:20 PM 23.0 °F 18.4 °F 15.8 °F 74% 29.44 in 6.2 mi NNE 3.5 mph - N/A   Unknown
6:50 PM 23.0 °F 18.4 °F 14.0 °F 68% 29.44 in 6.2 mi NNE 3.5 mph - N/A   Partly Cloudy
7:20 PM 21.2 °F 16.4 °F 14.0 °F 74% 29.44 in 6.2 mi NNE 3.5 mph - N/A   Partly Cloudy
7:50 PM 19.4 °F 14.3 °F 12.2 °F 74% 29.44 in 6.2 mi NNE 3.5 mph - N/A   Partly Cloudy
8:20 PM 21.2 °F 16.4 °F 15.8 °F 80% 29.42 in 6.2 mi NNE 3.5 mph - N/A   Partly Cloudy
8:50 PM 21.2 °F 16.4 °F 17.6 °F 86% 29.42 in 6.2 mi NNE 3.5 mph - N/A   Partly Cloudy
9:00 PM 23 °F - 17 °F 71% 29.41 in 31 mi NNW 5.8 mph - -  
9:20 PM 21.2 °F 16.4 °F 17.6 °F 86% 29.42 in 6.2 mi NNE 3.5 mph - N/A   Partly Cloudy
9:50 PM 21.2 °F 14.9 °F 15.8 °F 80% 29.42 in 6.2 mi NNE 4.6 mph - N/A   Partly Cloudy
10:20 PM 21.2 °F 14.9 °F 17.6 °F 86% 29.42 in 6.2 mi NNE 4.6 mph - N/A   Partly Cloudy
10:50 PM 21.2 °F 13.6 °F 17.6 °F 86% 29.39 in 6.2 mi NNE 5.8 mph - N/A   Unknown
11:20 PM 21.2 °F 13.6 °F 17.6 °F 86% 29.39 in 6.2 mi NNE 5.8 mph - N/A   Partly Cloudy
11:50 PM 21.2 °F 13.6 °F 15.8 °F 80% 29.39 in 6.2 mi NNE 5.8 mph - N/A   Partly Cloudy